Wind_Speed
71 70 70 70 70 70 70 70 69 70 69 69 69 69 68 68 68 68 68 68 68 68 68 67 67 67 68 68 68 69 69 70 70 70 71 72 73 73 73 73 73 74 74 73 73 72 72 72 72 73 72 72 72 72 74 75 76 77 76 76 75 74 72 70 68 68 67 65 63 61 58 56 55 55 56 56 56 56 56 53 52 49 43 40 41
72 72 72 72 72 72 72 72 72 72 72 72 72 71 71 71 70 70 70 70 70 70 70 70 69 69 69 69 70 70 71 71 71 72 72 72 73 73 74 74 74 75 75 75 75 74 74 74 74 74 74 74 74 74 74 75 76 77 78 78 77 76 75 73 71 70 70 70 68 66 63 60 58 58 58 57 57 57 57 55 54 53 48 44 44
73 73 73 73 73 74 74 74 74 74 74 74 74 73 73 72 72 72 72 72 72 72 72 72 72 71 72 72 72 72 73 73 73 73 73 73 73 73 74 74 75 75 76 77 77 76 76 76 76 76 76 75 76 76 76 76 76 77 79 79 79 78 78 76 74 72 72 72 72 70 68 65 62 61 61 59 58 59 59 59 57 56 53 49 47
74 74 74 74 74 75 75 75 75 75 76 75 75 75 75 74 74 74 74 74 74 74 74 73 73 73 74 74 75 75 75 74 74 73 73 74 74 75 75 75 75 76 76 77 77 78 77 78 78 79 78 77 78 78 78 78 78 78 78 80 80 80 80 79 77 75 74 74 74 74 72 70 67 65 65 63 61 61 62 62 60 59 57 54 52
76 76 76 76 76 76 76 76 77 77 76 76 77 76 76 76 76 76 76 76 76 75 75 75 75 75 76 76 77 77 77 76 76 75 75 75 75 76 76 76 76 77 77 77 77 78 78 78 79 80 80 80 80 80 80 80 80 79 79 80 80 81 82 82 81 79 77 76 76 77 76 74 72 69 68 67 66 65 65 65 65 63 61 59 57
79 79 79 79 79 79 79 79 79 79 78 78 78 78 77 77 76 76 77 77 77 76 76 76 76 77 78 79 79 79 78 77 77 76 76 77 77 77 78 78 78 78 78 78 78 78 78 78 79 80 81 81 81 82 82 82 81 81 81 81 81 81 81 82 82 82 80 79 79 79 78 77 76 74 73 71 70 68 68 69 69 68 66 64 63
81 81 82 83 83 83 83 83 82 82 82 81 81 81 80 79 78 78 78 78 77 77 77 77 77 78 79 80 80 80 79 78 78 78 78 78 79 79 80 80 80 80 80 80 80 80 79 79 80 80 81 81 82 83 83 83 83 83 83 82 82 82 81 82 82 82 82 82 82 82 80 79 79 78 78 76 73 72 72 72 73 73 72 70 68
82 82 83 84 86 86 86 86 85 85 85 85 85 85 84 83 82 81 80 80 79 79 79 79 79 80 81 81 81 80 79 79 78 78 79 80 80 81 82 82 82 81 81 81 82 82 81 81 81 81 81 81 82 82 83 84 84 84 85 84 84 84 82 82 82 82 83 83 84 84 84 83 81 80 81 80 77 76 76 76 76 77 77 75 72
81 82 83 84 86 87 87 86 86 86 87 88 88 88 88 87 86 85 84 83 83 82 82 82 82 83 83 83 82 81 80 80 79 80 80 81 81 82 82 83 83 83 83 83 84 84 84 84 83 83 83 82 82 83 83 84 84 85 86 86 85 85 84 84 83 82 82 83 84 85 86 86 85 84 82 82 81 81 81 79 78 79 80 78 77
80 80 81 83 85 86 87 86 86 87 88 89 90 90 90 90 89 89 88 88 87 86 86 86 86 86 85 85 84 83 82 82 82 82 82 82 82 82 82 83 83 84 84 84 85 85 86 86 86 85 85 84 84 84 84 84 84 84 85 86 86 86 85 85 85 84 83 82 83 85 86 87 88 88 87 85 84 83 82 81 81 82 82 81 80
77 79 79 81 83 84 85 85 85 86 87 88 90 91 91 90 90 91 91 90 90 89 89 89 90 90 89 88 87 86 85 85 85 84 84 84 83 83 83 83 83 84 84 84 85 86 86 87 87 87 88 87 86 85 85 85 85 85 85 86 86 86 86 86 86 86 85 83 83 84 84 85 87 89 89 89 88 87 85 84 83 83 83 82 83
68 75 77 78 81 83 83 83 82 83 85 87 88 89 89 89 90 91 92 92 92 92 92 92 93 92 92 91 90 89 89 89 88 88 87 86 85 84 84 84 84 84 84 85 85 86 86 86 87 88 88 89 89 88 87 86 86 86 86 86 86 86 85 85 86 87 87 85 84 84 84 84 86 87 88 89 90 90 90 88 86 84 83 83 84
64 69 73 76 79 81 83 82 81 82 84 86 87 87 86 86 87 88 90 91 92 92 93 94 95 94 94 93 92 92 92 92 91 91 90 90 89 87 86 86 85 85 86 86 86 86 86 87 87 87 88 89 90 89 89 88 87 87 86 86 86 86 86 85 85 86 88 87 86 85 85 85 85 86 87 88 88 89 90 89 89 87 85 84 84
68 69 71 73 75 78 81 82 81 83 85 86 86 85 85 85 85 86 87 88 89 91 93 94 95 95 95 95 95 94 94 93 93 93 92 92 92 91 90 89 88 88 88 87 87 87 87 87 87 87 88 89 89 90 89 89 88 87 87 86 85 86 86 86 86 86 87 87 86 86 87 87 86 87 87 87 86 87 87 88 88 88 87 85 85
68 69 69 70 71 73 78 82 82 83 85 86 85 85 84 84 84 84 85 86 87 88 90 92 93 94 95 95 95 95 96 96 96 95 95 94 94 93 93 92 91 91 91 90 89 89 88 88 87 87 88 89 90 90 90 89 89 88 87 86 85 85 86 86 87 86 86 86 86 86 88 88 88 88 88 86 85 85 86 86 87 87 86 85 84
63 65 66 67 67 68 74 80 81 81 83 84 83 83 83 82 82 82 82 83 84 85 86 88 89 91 92 93 93 93 95 96 97 97 97 97 97 96 95 94 93 93 93 92 92 91 91 90 89 88 89 89 90 90 90 90 89 88 87 87 86 85 85 86 87 87 86 85 84 85 87 88 88 89 89 87 85 84 84 84 84 85 84 83 83
60 63 65 65 65 69 74 78 80 80 82 81 80 80 81 79 78 78 78 79 78 78 79 81 83 85 86 87 88 89 91 93 95 96 97 98 98 97 96 95 95 94 93 93 93 93 93 93 92 91 91 91 91 91 90 89 88 88 87 87 86 86 86 86 87 87 87 86 84 84 85 87 88 88 88 88 87 85 83 81 82 83 83 82 82
61 62 65 65 67 71 76 78 78 80 81 79 78 79 79 77 75 73 71 70 68 67 69 71 74 77 79 79 80 82 85 88 91 93 95 96 96 95 95 95 94 93 93 93 94 94 93 94 94 94 93 94 93 93 91 90 88 87 87 86 86 86 86 88 88 87 87 86 85 84 84 85 86 86 87 87 87 87 84 81 82 83 83 81 81
63 64 66 68 70 74 78 79 78 79 79 78 77 77 76 75 72 67 63 61 59 59 60 62 65 67 69 70 73 76 79 82 85 89 91 91 91 91 91 90 90 90 91 92 93 93 93 94 95 95 95 95 95 94 93 91 89 88 87 87 86 86 88 90 89 87 86 85 85 84 83 83 83 84 85 86 87 86 85 83 83 83 83 82 82
64 65 67 70 73 76 79 79 79 78 78 77 76 75 74 73 68 63 59 57 55 55 55 56 57 59 62 65 68 71 73 77 81 85 85 85 85 85 84 84 84 85 86 88 89 90 92 93 94 95 95 95 95 94 94 93 92 91 90 89 87 89 91 91 90 87 85 84 83 83 83 82 82 83 84 85 85 85 85 84 84 83 84 84 83
63 66 69 72 75 76 77 78 77 77 77 75 74 73 73 70 65 61 59 57 54 53 52 52 53 55 57 60 63 67 71 74 77 80 80 80 79 78 77 76 76 77 79 81 83 85 88 90 92 94 94 94 94 93 94 94 94 93 92 90 90 91 92 91 90 87 85 82 82 81 82 82 82 82 83 83 83 83 83 84 83 83 84 84 83
65 68 70 71 73 74 75 76 75 75 75 74 72 71 70 66 63 60 58 56 54 53 51 50 50 51 53 57 62 66 69 71 73 75 76 75 74 73 71 70 70 70 72 74 77 79 83 85 88 90 91 91 92 92 93 94 94 93 92 92 92 92 92 91 90 88 85 82 80 79 80 82 83 83 84 84 83 83 83 83 83 82 83 83 83
67 67 66 67 70 72 74 74 73 72 72 72 71 70 68 65 62 59 56 55 53 51 49 47 47 49 53 58 61 64 65 67 68 70 70 70 69 67 66 65 65 65 65 67 70 73 77 80 82 84 85 86 87 88 89 91 91 92 92 92 92 92 92 91 90 88 86 83 81 79 79 81 84 85 85 85 85 84 83 83 82 82 82 82 82
62 62 61 62 67 70 71 71 71 70 70 70 69 68 66 63 60 57 55 53 50 47 45 44 46 49 53 56 59 60 61 62 63 63 63 63 63 62 61 60 60 59 59 61 64 67 70 73 75 77 79 81 81 82 83 85 87 88 90 91 91 92 92 91 90 88 87 84 82 81 81 82 83 85 86 86 86 85 84 83 82 82 82 81 81
56 56 57 60 64 67 69 70 69 69 68 68 66 64 62 60 58 55 52 48 45 43 43 45 47 49 51 53 54 56 57 57 57 57 57 57 57 56 55 54 55 55 55 57 59 61 64 67 69 71 72 74 75 75 77 79 81 83 84 86 87 89 90 91 90 89 87 86 85 84 84 84 84 85 86 86 85 85 85 84 83 83 82 81 81
51 53 55 58 62 65 67 67 67 67 67 65 63 60 59 57 55 51 47 43 41 42 43 45 46 47 48 49 50 51 53 52 51 51 51 51 51 50 49 49 51 52 52 53 54 56 59 61 63 64 65 66 67 68 70 72 74 76 78 80 82 84 86 88 89 89 88 87 86 86 86 87 86 85 86 85 83 83 85 85 85 84 83 82 82
49 51 54 58 61 63 64 65 65 66 65 62 59 58 56 54 50 47 43 41 40 41 42 43 43 43 44 45 46 47 48 48 47 47 48 47 45 45 46 48 49 50 50 50 51 53 55 56 58 58 58 59 59 61 63 65 67 69 71 74 76 78 81 83 86 87 87 87 87 87 88 88 87 86 85 84 82 83 84 85 86 85 84 84 83
48 51 54 56 59 60 61 62 63 63 62 59 56 54 52 49 46 42 39 38 39 40 40 40 40 40 41 42 43 44 45 44 44 45 45 43 42 43 45 46 47 48 48 48 48 50 51 53 53 53 53 53 54 55 57 58 59 61 64 66 69 72 75 77 80 82 85 86 87 87 88 88 87 86 85 83 82 82 83 84 85 86 85 85 84
48 50 53 55 57 58 59 59 59 59 58 56 53 49 47 43 40 37 36 36 37 37 37 37 37 38 39 40 40 41 42 44 44 44 43 41 40 41 43 44 44 44 44 44 45 47 48 49 49 49 49 50 50 51 51 52 53 55 57 59 61 64 67 71 74 77 81 84 85 86 86 87 86 86 85 83 82 82 83 84 85 85 86 85 84
47 49 51 53 54 55 55 55 55 54 54 51 48 44 41 38 35 34 34 34 35 34 34 35 35 37 38 39 39 38 40 44 44 41 39 38 38 39 40 41 41 40 40 40 41 43 44 45 45 45 45 45 46 46 45 46 48 50 51 53 55 57 61 64 68 72 76 79 81 83 84 85 86 86 85 83 83 84 84 84 85 85 86 85 84
45 47 49 50 50 50 49 49 49 50 49 47 43 41 38 35 33 32 32 33 33 33 33 34 35 36 36 37 38 38 39 42 43 40 35 34 35 36 37 38 38 36 36 36 37 38 39 40 40 40 40 40 40 39 40 41 43 45 46 48 49 52 55 58 62 66 70 74 77 79 81 83 85 86 85 85 85 85 86 86 86 86 86 85 84
44 46 47 46 45 45 45 46 47 47 46 43 40 38 36 34 33 32 32 32 33 32 32 33 34 35 34 35 37 39 38 38 39 37 34 33 33 33 34 34 34 32 32 33 33 33 35 36 36 34 34 34 34 34 35 36 38 40 42 43 44 46 49 52 56 59 63 67 71 74 77 80 82 84 84 85 85 86 86 87 87 87 87 86 85
44 44 44 43 42 43 45 46 46 45 44 42 38 35 34 33 32 31 31 31 31 31 31 31 32 33 34 34 35 37 37 36 34 32 31 31 31 30 30 29 29 29 30 30 31 30 31 32 32 30 30 30 30 30 31 32 34 36 37 38 39 41 43 46 49 53 57 60 64 67 70 74 77 79 81 83 84 86 87 88 88 89 88 87 86
43 43 42 42 42 44 46 46 45 45 44 39 35 34 34 33 31 30 30 30 29 29 29 29 30 32 33 33 33 35 35 34 31 28 28 29 29 28 27 27 27 27 28 28 28 28 27 28 28 28 27 28 29 28 29 30 32 33 33 34 34 36 38 41 45 48 51 54 57 60 64 67 70 73 76 79 82 85 87 88 89 89 89 88 87
43 43 43 43 44 46 47 45 44 44 41 37 35 36 35 32 29 29 29 29 28 28 28 27 29 31 32 31 31 32 33 31 28 26 26 27 26 26 26 25 25 26 26 26 26 26 25 25 25 26 27 28 28 28 28 29 30 30 30 30 30 32 34 37 40 43 46 49 53 56 59 62 65 67 70 74 78 81 84 86 88 88 88 88 88
43 43 44 44 45 46 45 44 42 41 39 36 36 36 33 30 28 28 28 27 27 27 26 26 27 29 30 29 29 30 30 28 25 24 25 26 25 24 24 24 24 24 24 24 24 24 25 25 24 25 27 28 27 27 27 28 28 28 27 27 27 28 30 33 35 38 41 44 47 50 54 57 60 63 65 69 72 75 78 81 84 85 86 87 87
43 44 44 45 45 44 43 41 40 38 36 36 35 34 30 28 27 27 27 26 26 26 25 25 26 27 28 28 28 27 26 25 24 23 25 25 24 23 23 23 23 23 23 22 22 22 24 25 25 25 27 27 27 26 26 26 26 25 25 25 25 25 27 28 31 33 36 39 41 44 48 52 55 58 61 63 66 68 72 75 77 79 81 83 84
42 43 43 43 42 41 40 38 37 36 35 35 33 31 28 26 26 26 26 25 25 24 24 24 24 25 25 26 26 25 24 23 23 24 25 25 24 23 22 22 22 22 21 20 20 21 23 24 25 25 26 27 27 26 25 24 24 23 23 23 23 24 24 25 26 29 31 34 36 39 41 45 48 51 54 57 59 62 64 67 69 71 73 75 78
42 42 41 40 39 38 36 35 35 36 36 34 31 28 26 25 24 25 26 25 23 23 23 23 23 23 24 24 25 24 23 22 23 24 24 24 23 22 21 21 21 21 20 19 19 19 21 23 24 24 25 26 26 25 24 23 22 22 22 22 22 22 22 22 23 25 28 30 32 34 36 39 41 44 46 49 52 54 56 58 60 63 65 67 70
41 40 38 37 36 36 35 35 35 36 35 32 28 26 25 23 23 24 25 24 23 22 21 21 22 22 23 24 24 23 23 23 23 24 24 23 22 21 20 20 21 20 18 18 18 18 20 21 23 22 22 22 23 23 24 23 22 22 21 20 20 21 21 20 21 22 25 27 29 31 32 34 36 38 41 43 45 47 49 51 53 54 56 59 61
38 37 36 36 36 35 35 35 35 35 34 30 27 25 24 22 22 23 24 23 22 21 20 20 21 22 23 23 23 23 23 24 24 24 23 22 21 21 21 20 20 19 18 17 18 18 19 20 21 21 19 19 19 21 23 24 24 22 21 20 19 20 20 20 20 21 23 25 27 29 30 32 34 35 37 38 40 41 42 44 46 47 49 51 53
36 35 35 36 36 35 34 34 34 33 32 29 27 26 24 22 22 23 24 23 21 19 19 20 21 22 23 23 23 23 23 23 23 23 22 21 21 21 21 21 20 19 18 17 18 18 19 21 22 21 19 18 18 20 22 24 24 24 22 21 20 19 19 19 20 21 22 23 25 27 29 30 31 32 33 34 35 36 37 38 40 41 43 45 46
34 34 36 36 35 34 33 32 31 31 30 29 27 26 24 22 21 23 24 23 20 18 19 20 21 22 23 23 23 23 23 23 22 21 20 20 20 20 20 21 21 20 18 18 18 18 20 22 23 22 21 20 19 19 21 22 23 23 22 21 20 19 19 19 20 21 22 22 22 23 24 26 28 30 31 32 33 33 34 35 36 38 39 41 42
33 34 36 35 34 32 31 30 30 30 29 28 27 26 25 23 22 23 23 22 19 18 19 20 21 22 23 22 22 22 22 22 21 20 19 19 19 18 18 19 19 19 18 18 17 19 21 23 25 25 24 23 22 21 20 20 21 20 20 20 20 20 20 20 20 21 21 22 22 21 22 24 26 27 29 30 31 31 32 33 35 36 38 39 40
35 35 35 34 32 31 30 29 29 28 27 27 27 27 25 23 22 23 23 22 19 18 19 21 22 22 22 22 22 22 22 21 20 19 18 18 17 17 17 17 17 17 17 17 17 19 22 24 26 28 27 26 25 24 23 22 21 21 20 20 19 20 20 21 21 20 21 22 22 22 22 23 24 25 26 27 29 30 32 33 34 35 36 37 37
35 35 34 32 31 30 29 28 27 26 25 26 27 27 26 24 23 23 23 22 20 19 20 22 22 22 22 21 21 21 21 20 19 18 17 16 15 15 16 16 16 15 16 16 17 19 22 25 27 28 29 29 28 27 26 25 24 23 22 21 21 20 20 21 21 21 21 22 23 23 23 22 22 23 25 26 29 31 32 33 34 35 35 35 36
35 34 33 32 31 30 28 27 26 25 24 25 27 27 27 25 24 24 23 22 20 20 21 22 22 22 22 20 20 20 20 19 17 15 15 15 14 15 15 14 14 14 15 16 17 19 21 24 26 28 29 29 29 29 28 27 26 25 24 23 22 21 21 22 23 23 23 22 23 24 24 24 24 25 27 29 31 32 32 33 34 34 34 34 35
36 35 34 32 31 29 28 27 26 25 24 25 27 28 28 26 25 25 23 22 21 22 23 23 23 23 21 20 20 20 19 17 14 13 14 14 14 13 13 12 12 13 15 16 17 18 20 22 25 27 28 29 29 29 28 28 27 27 26 25 24 22 21 22 25 25 24 23 23 24 26 27 27 29 30 31 31 31 32 33 33 34 34 35 35
37 36 34 32 30 29 28 27 26 25 24 25 27 29 29 28 26 26 24 22 22 23 24 24 23 23 21 20 20 20 18 15 13 12 12 12 12 11 10 9 10 12 15 17 18 18 19 21 23 25 27 28 28 29 29 29 29 28 27 26 25 23 22 23 26 26 24 23 23 24 25 27 28 29 30 30 31 31 32 33 34 34 34 34 35
38 37 35 33 31 30 28 28 26 25 25 26 28 30 30 29 28 27 26 23 23 24 25 25 24 23 22 20 20 19 16 13 12 12 11 11 10 9 8 9 10 12 15 17 18 18 19 20 21 22 23 24 25 26 26 26 26 25 24 24 23 22 22 24 26 25 23 22 22 23 25 26 28 28 29 30 30 32 33 33 33 33 33 34 34
39 37 35 33 32 31 29 28 27 26 25 27 29 30 31 31 29 28 27 25 24 26 27 26 25 24 22 21 20 19 16 13 12 12 10 9 8 8 9 10 11 12 13 14 14 15 16 17 18 19 19 20 21 21 21 21 21 21 21 21 22 22 23 24 24 23 22 22 22 23 24 24 25 26 27 28 30 31 31 31 32 32 32 32 33
Wind_Direction
255 255 256 256 256 256 255 255 255 255 254 254 254 254 254 254 254 253 253 253 252 252 252 252 252 251 251 251 250 250 249 249 248 247 247 248 248 248 249 249 249 250 250 250 250 249 248 248 248 248 248 247 246 244 241 240 239 240 240 241 241 241 241 241 241 243 245 244 243 242 242 242 241 241 241 241 241 241 242 243 243 246 248 246 245
255 255 255 255 256 256 256 256 256 256 255 255 255 255 255 255 254 254 254 254 253 253 253 253 253 253 253 253 252 251 251 250 249 249 249 248 248 248 248 249 249 249 250 251 251 250 250 249 249 249 248 248 248 247 245 243 241 241 241 241 241 241 241 242 241 242 243 244 244 243 242 241 242 243 242 242 242 242 243 244 244 246 248 247 246
256 256 256 255 255 256 256 256 256 256 256 256 256 256 255 255 255 254 254 254 254 254 254 254 254 254 254 254 253 253 252 251 251 250 250 250 250 249 249 249 248 249 249 250 251 251 251 250 250 250 250 249 249 249 248 247 244 243 242 242 242 242 242 241 241 241 241 243 244 245 244 242 241 242 243 242 242 242 243 244 245 246 248 247 247
257 257 257 257 256 256 256 256 256 256 256 256 256 256 256 256 256 255 255 255 255 255 255 255 255 255 254 254 254 253 253 252 252 251 251 251 251 251 250 250 249 249 249 249 250 250 250 250 250 250 250 250 250 250 250 249 248 245 244 243 243 243 243 242 241 241 240 241 243 244 245 244 242 242 242 243 242 242 243 244 245 246 248 248 248
255 256 257 257 257 257 257 257 256 256 256 255 255 255 255 255 256 256 256 256 256 256 256 256 255 255 255 255 254 253 253 253 252 252 252 252 252 252 252 251 251 250 250 250 249 249 249 249 250 250 250 250 250 250 250 250 250 249 247 245 244 243 243 243 242 241 241 241 241 242 243 244 244 243 243 242 242 242 243 244 246 246 247 249 249
253 254 255 256 256 256 256 256 256 256 256 256 256 256 256 255 255 255 256 256 256 256 256 256 256 256 256 255 255 254 253 253 252 252 252 252 252 252 252 252 252 251 251 251 251 250 249 249 249 249 249 249 249 249 249 250 250 250 249 248 246 244 244 243 243 242 241 241 241 242 242 242 244 244 244 243 242 242 242 244 247 248 248 249 249
252 253 253 254 254 254 255 255 256 256 256 257 257 256 256 256 256 255 255 255 255 256 256 256 256 256 256 255 255 255 255 254 253 253 252 252 252 251 251 251 251 251 251 251 251 251 251 250 249 249 249 249 249 249 248 248 248 249 250 250 249 247 245 244 243 242 241 241 242 243 242 242 242 243 244 244 243 243 243 243 245 248 249 250 250
251 252 252 253 253 254 254 254 255 256 256 257 257 257 257 257 256 256 256 255 255 255 255 255 255 255 255 255 255 255 255 255 255 254 254 253 252 251 251 251 251 251 251 251 251 251 251 251 250 250 249 249 249 249 248 248 247 247 247 248 249 249 248 246 245 243 242 241 241 242 243 243 242 242 243 244 244 244 244 243 244 246 248 250 251
254 253 253 253 253 253 253 254 254 255 255 256 256 257 257 257 257 257 256 256 256 256 256 255 255 255 255 255 255 255 255 255 255 255 254 254 253 252 252 252 251 251 251 251 251 251 251 251 251 250 250 250 249 249 249 248 248 247 247 246 247 248 249 248 247 245 243 242 241 241 242 243 243 243 242 243 243 244 244 245 245 246 248 249 250
257 256 255 255 254 254 253 253 254 254 254 255 255 256 256 257 257 257 257 257 257 257 257 257 256 256 256 256 256 256 255 255 255 254 254 254 254 253 253 253 252 252 251 251 251 251 251 251 251 251 251 251 250 249 249 249 249 248 247 247 246 246 246 248 248 248 246 244 242 242 242 242 243 243 243 243 243 243 244 244 245 246 247 249 250
258 256 256 256 256 256 255 254 253 253 254 254 254 255 255 255 256 257 257 257 258 258 258 257 257 257 257 257 257 256 256 256 255 255 254 254 254 254 254 253 253 253 252 252 251 251 251 251 251 251 251 251 251 250 250 249 249 248 248 248 247 246 245 245 246 247 247 246 245 244 243 242 242 243 243 243 244 244 244 244 244 245 246 248 249
256 255 255 256 257 257 256 255 254 254 254 254 254 254 254 254 255 255 256 257 257 258 258 258 258 258 258 258 258 257 257 257 256 256 256 255 254 254 254 254 254 254 253 253 252 251 251 251 250 251 251 251 251 251 250 250 250 249 248 248 248 247 246 245 245 245 246 246 246 246 245 243 243 243 243 242 243 244 244 245 245 245 245 246 248
254 256 256 257 257 258 257 256 255 255 255 255 254 254 254 254 254 254 255 256 256 257 257 258 258 259 259 259 259 259 258 258 258 257 257 256 256 255 254 254 253 253 253 253 253 252 252 251 251 251 251 251 251 251 250 250 250 250 249 248 248 248 247 246 244 244 245 245 245 246 246 246 245 244 243 243 243 243 244 245 246 246 246 246 247
254 256 256 256 257 258 259 258 256 256 256 256 255 255 255 255 255 254 255 255 256 256 257 257 258 259 259 260 260 260 260 260 259 259 258 257 257 256 255 254 254 253 253 253 253 253 253 252 252 251 251 251 251 251 250 250 250 250 250 249 249 249 248 247 246 244 244 244 244 244 245 246 246 246 245 244 243 244 244 245 245 246 246 246 247
253 254 255 255 255 257 259 259 257 256 256 256 256 256 256 255 255 255 255 255 255 256 256 257 258 259 259 260 260 261 261 261 261 260 260 259 258 257 256 255 254 254 253 253 253 253 253 253 252 252 251 251 251 250 250 250 250 250 249 249 249 249 249 248 247 245 244 243 243 243 244 244 245 246 247 246 245 245 245 245 246 246 246 247 248
251 252 252 252 252 253 255 257 257 257 256 257 257 257 256 256 256 256 255 255 254 255 256 257 258 259 259 260 260 260 261 261 261 260 260 259 259 258 257 256 255 254 254 253 253 253 253 253 252 252 252 252 251 251 250 250 250 250 250 250 249 249 249 249 248 246 245 244 243 242 243 243 244 245 246 247 247 246 246 246 247 248 248 248 248
250 250 250 250 249 249 250 252 254 256 257 258 258 259 259 258 257 257 256 256 255 255 256 257 257 258 259 259 260 260 260 260 260 260 259 259 259 258 257 257 256 255 254 254 253 253 252 252 252 252 252 252 251 251 250 250 249 249 250 250 250 249 249 249 248 247 246 244 243 242 242 243 243 243 245 246 247 248 247 247 248 248 248 248 249
249 247 247 247 246 247 248 250 251 253 255 257 258 260 260 261 261 260 260 261 260 259 258 258 258 258 259 259 259 259 259 259 259 259 259 259 258 258 258 257 256 256 255 254 254 253 253 252 252 252 252 252 251 251 251 250 250 249 249 249 249 249 249 249 248 247 246 245 243 242 242 243 243 244 244 245 246 247 248 247 248 248 248 248 249
247 244 244 244 244 246 248 250 251 252 254 256 257 259 262 264 265 266 266 266 264 262 260 259 259 259 259 258 258 258 258 258 259 258 258 259 259 259 258 258 257 257 256 255 255 254 253 252 252 252 251 251 252 252 252 251 250 250 249 248 248 248 248 248 248 246 245 245 244 243 242 242 243 243 244 244 244 246 247 247 247 248 249 249 248
248 245 243 243 243 245 247 250 251 253 255 257 259 261 264 266 268 269 269 269 267 264 263 262 261 260 259 257 257 257 257 258 258 259 260 260 260 260 260 259 258 257 257 256 255 254 253 253 252 251 251 251 251 251 252 252 251 250 249 248 248 247 247 248 248 247 246 245 244 243 242 242 242 243 243 243 243 244 245 246 246 247 248 248 248
248 245 243 242 243 245 248 250 252 254 257 259 260 262 264 267 269 270 270 270 269 268 267 266 264 263 261 259 258 258 257 257 258 260 261 261 261 261 261 260 259 258 257 256 255 254 254 253 252 251 251 251 251 251 251 251 251 250 249 249 248 247 247 248 248 248 247 246 244 244 243 242 241 241 242 243 243 243 243 244 244 245 246 247 248
245 244 243 243 244 246 248 250 252 254 256 259 260 262 264 267 269 270 271 272 272 272 270 268 267 265 263 261 259 257 257 258 259 260 261 262 263 263 262 261 260 258 256 255 254 254 253 252 252 252 251 251 250 250 250 250 250 250 250 249 248 248 248 248 248 248 247 246 245 244 243 243 242 241 241 242 242 242 242 242 243 243 244 245 247
245 245 245 245 245 247 249 251 253 254 256 258 260 262 265 267 269 271 272 273 273 272 271 269 267 265 263 261 260 259 259 259 260 260 262 263 264 264 263 262 260 258 257 256 255 254 253 252 252 252 252 252 251 250 250 250 250 250 249 249 248 248 248 248 247 247 247 246 245 244 243 242 242 241 240 240 241 241 241 241 242 242 243 244 245
246 247 247 245 245 247 249 251 253 254 255 257 259 261 264 267 270 272 274 274 273 272 272 270 267 264 263 263 263 263 262 262 262 262 263 264 264 263 262 261 260 259 257 256 255 254 254 253 253 252 252 252 252 251 251 250 250 249 249 248 248 248 247 247 247 246 246 245 244 243 242 241 241 241 240 239 239 240 241 241 241 242 242 244 245
245 245 245 244 244 246 248 250 252 254 256 258 260 263 266 269 271 272 273 273 274 273 271 268 265 264 264 264 265 265 265 264 263 263 263 263 263 262 262 262 261 259 257 256 255 255 255 254 254 253 252 252 252 252 251 251 250 249 249 248 247 247 247 246 246 245 244 244 242 242 241 240 240 239 240 239 238 239 241 242 242 242 242 243 244
240 241 241 241 243 244 247 249 252 255 257 260 262 265 267 270 271 272 274 275 275 272 269 266 264 264 264 264 265 266 265 264 264 263 263 262 262 263 263 262 261 260 259 258 257 256 256 255 255 254 253 253 253 252 251 250 250 249 248 248 247 246 246 246 245 244 243 242 241 240 240 240 239 238 239 238 238 238 239 241 242 242 242 243 243
236 236 237 239 241 243 246 248 251 254 257 261 264 266 267 269 270 272 275 275 273 270 267 266 265 265 265 265 265 265 264 264 264 263 263 263 264 264 264 263 262 262 261 260 259 258 257 257 256 256 255 254 253 252 251 250 249 248 248 247 246 245 245 244 244 244 243 242 240 239 239 239 238 238 238 238 237 237 238 239 241 241 242 242 243
234 234 236 238 241 243 246 248 251 255 259 262 264 264 266 268 270 272 273 272 270 269 268 267 266 266 265 264 264 264 264 264 263 264 264 265 266 265 264 263 263 262 261 261 260 259 259 258 258 257 257 255 254 253 252 251 249 248 247 246 245 245 244 244 243 243 242 241 240 239 238 238 238 238 237 237 236 236 237 238 239 241 241 242 243
233 234 236 239 241 244 247 250 253 256 259 261 263 264 266 268 270 271 271 270 269 268 267 266 266 266 264 263 263 264 265 265 264 265 267 268 267 265 264 262 262 261 261 260 259 258 258 258 258 257 257 256 255 253 252 251 250 249 247 245 244 243 243 242 242 241 241 241 240 239 238 238 238 238 238 237 236 236 237 237 238 239 240 241 242
234 235 238 240 243 245 248 251 253 256 259 261 264 266 268 270 270 271 271 270 269 267 266 266 265 264 263 263 262 263 265 267 267 267 267 268 266 263 262 261 260 259 258 257 256 256 256 256 256 256 255 255 254 253 252 251 251 249 247 245 243 242 241 240 239 239 240 240 239 238 237 237 237 237 237 237 236 236 236 237 238 239 240 240 241
235 237 240 243 246 248 251 253 256 258 261 264 266 269 272 272 272 272 271 269 267 266 266 265 263 262 261 263 263 263 263 266 269 269 267 264 262 260 260 260 259 258 257 255 254 254 254 254 254 254 254 254 253 253 251 250 250 249 247 245 243 241 239 238 238 238 238 238 238 238 237 236 236 236 236 236 235 235 236 237 237 238 239 240 240
237 239 243 246 250 254 256 258 260 262 265 267 269 272 274 274 272 271 269 267 265 264 263 262 261 260 260 262 265 266 264 265 267 269 267 262 258 256 256 258 259 259 257 255 253 251 252 254 254 253 254 254 253 252 250 249 248 248 246 245 243 241 239 238 237 236 236 237 237 237 236 236 235 235 235 235 235 235 236 236 237 238 238 239 240
240 243 246 250 254 257 259 262 264 266 268 270 272 274 275 273 271 268 266 263 261 261 260 258 259 260 262 262 264 266 266 265 264 264 263 261 259 257 256 256 257 257 256 255 253 250 250 253 254 254 254 254 253 251 249 248 248 247 247 245 243 241 239 238 237 236 235 235 235 236 236 236 236 235 235 234 234 235 235 236 236 237 238 238 239
244 247 250 253 256 258 260 263 266 268 270 273 275 276 274 272 269 266 263 260 258 257 256 257 259 261 262 263 263 264 265 265 263 259 257 258 259 260 259 258 256 255 254 255 255 254 252 252 253 253 252 251 251 250 248 248 247 247 247 245 244 242 240 238 237 235 234 233 233 233 233 234 234 234 234 234 234 234 235 235 236 237 237 238 239
246 249 252 255 257 259 262 264 267 270 273 275 276 275 272 270 267 263 260 258 256 254 254 255 259 261 262 261 262 261 262 262 260 258 257 258 258 259 259 259 257 256 255 255 255 256 255 253 251 249 249 248 249 248 246 247 247 247 247 246 244 242 240 238 237 235 233 232 230 230 230 231 231 232 232 232 233 233 234 235 236 236 237 238 239
249 251 253 256 258 261 264 267 270 272 274 274 273 271 270 267 264 260 257 255 254 254 253 254 256 259 261 260 258 258 259 260 259 258 260 261 260 259 259 259 258 258 257 256 255 256 256 254 251 247 245 245 246 246 245 246 247 248 247 246 244 242 240 238 236 235 233 231 230 229 229 229 229 230 230 230 231 232 233 234 235 236 237 238 239
251 253 255 257 260 263 266 269 271 272 273 272 270 269 267 265 261 256 253 252 251 252 254 255 255 257 258 257 255 255 257 259 260 260 260 262 261 260 259 260 260 260 259 257 255 254 253 252 249 245 243 243 244 244 243 245 246 247 246 245 243 241 240 238 236 234 233 231 230 228 228 228 228 229 229 230 230 231 232 233 234 235 236 237 238
252 254 257 259 262 265 267 269 271 273 272 271 269 268 264 260 256 253 250 249 249 250 253 254 255 255 254 254 254 254 255 257 259 260 260 260 261 261 261 262 263 262 261 258 254 250 248 247 246 243 240 239 239 240 240 242 244 245 245 243 240 238 237 236 235 233 231 229 228 227 227 227 227 227 228 229 229 230 231 232 233 234 235 236 237
253 256 258 261 263 265 268 271 273 273 272 270 268 265 260 254 250 248 247 246 247 249 251 252 253 252 251 251 253 254 256 257 258 259 260 261 262 263 264 265 264 263 261 258 253 246 242 241 240 239 238 237 237 237 237 238 240 243 243 240 237 235 233 233 233 231 229 227 225 225 224 225 225 225 226 227 228 229 229 230 231 232 233 234 235
254 256 259 262 265 268 271 273 273 272 271 270 266 260 254 249 245 244 245 245 246 248 249 250 249 247 247 249 251 253 255 256 257 258 260 263 265 266 266 266 265 264 261 259 253 244 238 236 237 238 238 238 237 235 233 232 233 237 239 238 235 232 229 228 228 229 227 224 222 222 222 222 222 222 222 223 224 225 227 228 229 230 231 232 233
255 258 261 264 267 269 271 272 272 271 271 269 263 256 249 243 240 241 243 244 244 245 246 244 243 244 245 248 250 252 253 254 255 257 260 263 267 269 269 268 267 266 264 259 253 244 235 232 233 235 236 237 235 233 230 228 228 231 234 235 234 231 228 225 225 225 225 222 219 217 217 218 219 219 219 220 221 221 223 224 226 227 228 229 230
255 259 262 265 267 269 270 270 269 269 269 267 261 253 245 237 235 239 242 242 242 243 241 238 238 241 244 247 250 252 253 254 255 257 260 263 267 270 272 271 270 269 265 259 252 243 234 228 227 229 231 231 230 228 226 225 225 227 229 231 233 232 230 227 225 224 223 221 219 217 216 216 216 217 217 217 217 218 219 220 222 223 225 226 227
256 260 263 265 267 268 268 267 266 266 266 262 256 248 240 232 231 236 240 241 240 238 235 233 234 238 243 246 250 252 254 255 256 257 261 265 267 269 271 272 271 270 265 257 249 240 231 225 222 223 225 225 225 223 222 222 223 224 225 227 230 231 230 229 227 226 224 221 219 217 216 215 216 216 215 215 215 215 216 217 218 220 222 224 225
258 261 263 264 265 265 263 262 261 261 260 256 250 244 237 230 228 233 238 239 238 234 230 228 231 236 241 245 249 252 254 256 258 260 263 266 268 270 271 271 270 268 263 254 244 235 227 221 217 217 219 220 221 220 219 219 219 220 220 222 225 228 229 229 228 227 226 223 219 216 214 214 214 215 214 214 213 213 214 215 216 218 220 221 223
259 260 261 262 262 260 258 257 257 257 255 250 245 241 235 229 226 230 235 237 234 229 225 225 229 234 238 242 247 252 255 257 260 263 266 267 270 273 272 270 267 263 258 251 241 230 224 219 216 214 215 218 220 220 220 220 220 220 219 218 219 222 226 228 228 226 225 224 220 216 214 213 213 214 213 212 211 211 211 212 214 216 218 219 221
258 259 261 260 259 257 255 255 255 254 249 244 241 238 234 229 226 228 232 234 231 225 222 223 228 232 236 240 245 250 253 256 260 265 268 272 275 274 270 266 262 257 253 247 238 228 222 219 218 216 215 217 219 220 222 223 224 225 226 225 222 221 222 225 226 225 223 222 219 215 213 212 211 211 211 210 209 209 210 210 212 214 215 217 218
260 261 262 260 258 257 256 255 253 251 246 240 236 235 233 230 227 227 229 230 228 222 219 221 226 230 233 236 241 247 251 255 260 267 272 276 275 272 267 262 256 249 243 237 232 226 220 218 218 219 218 219 221 223 225 226 228 230 232 233 231 226 221 221 222 221 219 219 218 214 210 207 207 207 207 208 208 209 209 210 211 212 213 214 216
262 262 262 260 258 257 256 254 252 249 242 235 232 232 231 229 228 228 227 226 223 219 217 218 223 227 230 232 237 244 249 253 259 268 273 274 273 270 265 258 250 241 232 228 226 223 219 216 216 217 218 220 222 225 227 229 231 233 234 236 237 233 224 218 217 216 214 214 215 213 209 206 205 206 207 209 209 209 210 210 210 211 212 213 214
261 261 260 259 257 257 255 254 252 248 240 232 229 229 228 227 227 228 228 223 218 216 216 217 220 224 226 228 234 240 245 250 257 263 264 265 267 267 260 247 236 227 221 219 218 218 217 216 215 216 216 217 219 222 224 227 230 232 234 235 235 232 223 214 210 209 209 209 210 209 207 205 205 206 208 208 208 208 209 210 211 211 212 213 214
260 259 259 258 257 256 255 253 251 246 238 230 227 227 227 226 225 227 228 223 216 213 213 215 218 220 222 224 229 235 239 245 250 253 252 254 256 252 239 223 214 210 211 213 213 214 215 216 217 217 216 216 217 219 221 223 225 227 227 227 225 219 211 204 202 202 203 204 205 204 203 203 204 205 206 206 207 208 209 210 211 211 212 213 214
259 258 258 257 256 255 254 253 250 244 236 229 226 225 225 224 223 225 226 223 215 210 211 213 215 217 218 220 224 228 233 237 239 239 238 238 235 226 212 201 195 194 197 203 207 211 214 214 215 215 215 215 214 215 214 214 212 210 208 205 202 197 193 191 192 194 196 198 199 200 200 201 202 203 204 205 206 207 209 209 210 211 212 214 216
Height
10527 10529 10532 10534 10535 10537 10539 10541 10543 10544 10546 10548 10550 10552 10554 10556 10557 10558 10560 10561 10562 10563 10564 10565 10567 10568 10569 10571 10573 10574 10576 10577 10579 10581 10582 10583 10585 10587 10590 10592 10594 10595 10597 10599 10602 10605 10608 10610 10611 10613 10616 10619 10622 10624 10627 10630 10632 10635 10637 10639 10642 10645 10647 10652 10656 10657 10656 10658 10662 10664 10666 10669 10671 10672 10672 10674 10675 10676 10678 10679 10680 10682 10685 10687 10689
10518 10520 10523 10524 10525 10527 10529 10531 10532 10534 10536 10538 10539 10541 10543 10546 10548 10549 10551 10552 10552 10554 10555 10557 10559 10560 10561 10562 10564 10565 10566 10567 10570 10572 10573 10575 10577 10579 10582 10584 10586 10587 10589 10590 10593 10596 10599 10601 10602 10604 10607 10610 10612 10614 10617 10620 10623 10626 10628 10630 10633 10636 10639 10644 10648 10651 10650 10651 10654 10658 10660 10664 10666 10666 10667 10669 10670 10671 10672 10674 10675 10676 10678 10681 10683
10509 10511 10513 10514 10516 10517 10519 10520 10521 10523 10525 10527 10529 10531 10533 10535 10537 10539 10540 10541 10543 10544 10546 10548 10550 10551 10552 10553 10553 10554 10556 10558 10560 10563 10565 10567 10569 10571 10573 10576 10578 10579 10580 10582 10584 10587 10590 10592 10593 10594 10598 10601 10603 10604 10607 10610 10613 10616 10619 10621 10625 10627 10630 10635 10640 10644 10645 10644 10647 10651 10654 10657 10660 10660 10661 10663 10665 10666 10666 10667 10668 10670 10672 10675 10676
10500 10501 10502 10504 10506 10507 10508 10510 10511 10513 10514 10516 10518 10520 10522 10524 10526 10528 10529 10531 10532 10534 10536 10538 10540 10541 10541 10542 10542 10543 10545 10548 10551 10554 10557 10558 10560 10562 10564 10566 10568 10570 10571 10573 10575 10577 10580 10582 10583 10584 10588 10591 10593 10594 10596 10599 10602 10607 10610 10612 10616 10618 10620 10625 10631 10635 10638 10638 10639 10642 10645 10649 10653 10654 10655 10657 10659 10660 10660 10660 10662 10663 10665 10668 10670
10491 10491 10492 10494 10495 10496 10497 10498 10500 10501 10503 10505 10507 10509 10511 10513 10516 10517 10519 10520 10522 10524 10526 10528 10529 10530 10530 10530 10530 10532 10534 10538 10541 10545 10547 10549 10551 10552 10553 10556 10558 10560 10562 10563 10565 10567 10570 10572 10573 10574 10577 10581 10583 10584 10587 10589 10592 10596 10600 10602 10605 10609 10611 10615 10621 10626 10630 10632 10631 10633 10636 10640 10644 10646 10648 10649 10652 10654 10654 10654 10655 10656 10658 10661 10663
10482 10482 10483 10483 10484 10484 10485 10487 10488 10490 10492 10493 10495 10497 10500 10502 10505 10507 10508 10510 10512 10514 10515 10517 10518 10518 10518 10518 10518 10521 10524 10527 10531 10534 10537 10539 10540 10541 10543 10545 10547 10549 10551 10552 10554 10556 10559 10562 10563 10564 10566 10570 10572 10574 10576 10579 10582 10585 10588 10591 10594 10598 10602 10605 10610 10616 10621 10623 10623 10624 10628 10632 10634 10637 10639 10641 10644 10647 10648 10648 10648 10649 10651 10653 10655
10472 10472 10472 10471 10472 10473 10474 10476 10477 10479 10481 10482 10483 10486 10488 10491 10493 10495 10497 10499 10501 10503 10505 10506 10507 10506 10506 10506 10508 10510 10514 10517 10521 10523 10525 10527 10528 10530 10531 10533 10535 10537 10540 10541 10542 10544 10547 10550 10551 10553 10555 10558 10561 10563 10565 10568 10571 10574 10577 10579 10582 10587 10592 10595 10599 10605 10610 10614 10615 10615 10619 10622 10625 10628 10629 10631 10636 10640 10641 10641 10641 10641 10642 10645 10647
10461 10462 10461 10460 10459 10461 10463 10465 10467 10468 10469 10470 10472 10474 10476 10478 10481 10483 10485 10487 10489 10491 10493 10494 10494 10494 10494 10495 10497 10500 10503 10507 10509 10512 10513 10514 10516 10517 10519 10521 10523 10525 10528 10530 10531 10533 10535 10537 10539 10541 10543 10546 10548 10551 10553 10556 10559 10563 10565 10568 10571 10575 10580 10584 10588 10593 10598 10603 10605 10606 10608 10612 10615 10618 10620 10622 10629 10632 10631 10632 10634 10634 10634 10638 10640
10450 10450 10450 10449 10447 10448 10450 10453 10455 10456 10457 10458 10459 10461 10463 10466 10468 10470 10473 10475 10477 10479 10481 10481 10481 10482 10482 10484 10487 10490 10493 10495 10497 10499 10500 10501 10503 10505 10507 10509 10512 10514 10516 10518 10519 10521 10522 10524 10527 10528 10530 10533 10536 10538 10541 10543 10547 10551 10553 10556 10561 10564 10568 10571 10576 10580 10586 10591 10594 10595 10598 10602 10605 10608 10610 10614 10618 10619 10620 10624 10628 10626 10626 10630 10633
10437 10438 10438 10437 10435 10436 10439 10441 10443 10444 10444 10445 10446 10448 10450 10453 10456 10458 10459 10461 10464 10466 10467 10468 10468 10469 10470 10473 10476 10479 10481 10483 10484 10485 10487 10488 10490 10493 10495 10497 10499 10501 10504 10505 10507 10508 10510 10512 10514 10516 10518 10520 10523 10526 10528 10530 10534 10538 10540 10543 10548 10553 10557 10560 10563 10567 10573 10579 10582 10584 10588 10592 10594 10596 10600 10604 10606 10608 10611 10616 10617 10617 10618 10622 10625
10426 10425 10426 10424 10422 10423 10426 10429 10431 10432 10432 10432 10433 10435 10438 10442 10444 10445 10446 10449 10451 10453 10454 10454 10454 10455 10457 10461 10464 10466 10468 10469 10470 10472 10473 10476 10478 10481 10483 10485 10486 10489 10491 10493 10494 10495 10497 10500 10502 10503 10505 10507 10510 10513 10515 10518 10521 10525 10528 10530 10535 10540 10546 10549 10552 10555 10559 10566 10570 10573 10577 10581 10582 10584 10589 10592 10594 10597 10601 10603 10605 10609 10612 10615 10616
10417 10414 10414 10412 10410 10410 10412 10416 10418 10419 10419 10419 10420 10422 10426 10430 10432 10433 10434 10436 10438 10439 10440 10440 10441 10442 10445 10448 10450 10452 10453 10455 10456 10458 10460 10463 10466 10469 10471 10473 10474 10476 10478 10480 10481 10482 10484 10487 10489 10491 10492 10494 10496 10499 10502 10505 10508 10511 10515 10518 10522 10527 10532 10537 10541 10543 10547 10553 10558 10561 10565 10569 10570 10572 10576 10580 10583 10585 10588 10592 10597 10600 10603 10605 10607
10406 10403 10401 10401 10400 10398 10399 10403 10405 10406 10405 10406 10408 10411 10415 10418 10419 10421 10423 10424 10426 10426 10426 10427 10427 10429 10432 10434 10436 10437 10439 10441 10443 10445 10447 10449 10452 10455 10458 10460 10462 10463 10464 10466 10468 10469 10471 10473 10476 10478 10479 10480 10483 10486 10489 10492 10495 10498 10502 10507 10510 10514 10519 10524 10529 10531 10535 10540 10546 10550 10552 10555 10559 10561 10563 10568 10572 10575 10578 10583 10587 10590 10593 10596 10597
10392 10390 10390 10390 10390 10388 10387 10389 10392 10393 10392 10393 10397 10401 10404 10406 10408 10410 10411 10412 10413 10414 10414 10414 10415 10417 10420 10421 10422 10424 10426 10427 10429 10431 10433 10435 10437 10440 10444 10446 10448 10450 10451 10453 10454 10456 10458 10460 10462 10464 10465 10467 10469 10472 10475 10479 10482 10486 10490 10495 10499 10502 10506 10511 10515 10519 10523 10528 10535 10539 10540 10543 10547 10549 10550 10556 10562 10565 10569 10572 10575 10579 10583 10586 10588
10379 10379 10378 10379 10381 10380 10376 10374 10377 10379 10379 10381 10386 10389 10392 10394 10396 10398 10399 10400 10401 10401 10402 10403 10404 10406 10407 10408 10410 10412 10412 10413 10414 10416 10419 10420 10422 10425 10428 10431 10433 10435 10437 10439 10441 10443 10444 10446 10449 10451 10452 10453 10455 10458 10462 10465 10469 10474 10478 10483 10487 10490 10494 10498 10501 10505 10511 10517 10523 10527 10528 10531 10535 10537 10538 10544 10551 10555 10558 10562 10565 10570 10575 10578 10582
10368 10368 10368 10369 10371 10372 10366 10360 10361 10365 10367 10370 10375 10377 10379 10382 10384 10385 10386 10387 10388 10389 10391 10392 10393 10394 10395 10396 10398 10399 10399 10399 10400 10402 10403 10404 10406 10409 10412 10415 10418 10420 10422 10424 10426 10428 10430 10432 10434 10437 10438 10440 10441 10443 10447 10451 10456 10461 10466 10471 10474 10478 10482 10484 10486 10491 10498 10504 10510 10515 10517 10519 10524 10527 10529 10533 10540 10544 10547 10553 10557 10561 10565 10570 10573
10357 10356 10356 10358 10359 10357 10354 10351 10351 10353 10356 10359 10362 10364 10366 10369 10371 10372 10374 10375 10377 10380 10381 10382 10383 10383 10384 10385 10386 10386 10385 10384 10385 10387 10387 10388 10390 10393 10396 10399 10402 10405 10408 10409 10411 10414 10416 10418 10420 10423 10425 10425 10426 10428 10432 10437 10444 10449 10454 10458 10462 10466 10470 10470 10472 10478 10485 10491 10497 10503 10506 10508 10512 10517 10520 10524 10529 10532 10538 10545 10549 10549 10552 10558 10562
10345 10345 10345 10347 10347 10343 10341 10342 10343 10344 10346 10349 10351 10353 10354 10357 10358 10361 10363 10366 10369 10370 10371 10372 10372 10372 10372 10373 10373 10372 10371 10370 10371 10371 10371 10372 10375 10378 10381 10385 10388 10391 10393 10394 10396 10399 10401 10404 10406 10408 10411 10411 10412 10414 10418 10424 10432 10438 10442 10446 10450 10455 10456 10454 10457 10464 10470 10477 10485 10491 10495 10498 10502 10507 10511 10515 10518 10521 10528 10535 10537 10536 10541 10547 10550
10332 10334 10334 10335 10335 10332 10329 10331 10334 10335 10337 10340 10342 10343 10344 10346 10348 10351 10355 10357 10359 10360 10360 10361 10361 10361 10361 10361 10360 10359 10359 10358 10356 10356 10357 10358 10362 10365 10367 10371 10375 10377 10378 10379 10381 10383 10386 10389 10390 10393 10396 10398 10399 10402 10406 10411 10419 10425 10428 10433 10438 10442 10440 10438 10443 10450 10457 10465 10473 10479 10485 10489 10492 10496 10500 10504 10507 10511 10517 10523 10525 10527 10531 10534 10537
10321 10324 10324 10324 10323 10321 10320 10323 10326 10328 10329 10332 10334 10335 10336 10337 10340 10343 10346 10347 10349 10349 10350 10351 10351 10350 10349 10349 10348 10347 10348 10347 10344 10343 10345 10347 10349 10351 10355 10359 10361 10362 10363 10365 10367 10369 10370 10373 10375 10377 10380 10384 10387 10390 10394 10398 10403 10409 10413 10419 10425 10426 10423 10424 10431 10438 10445 10454 10461 10467 10473 10478 10482 10485 10488 10492 10497 10501 10506 10510 10514 10518 10520 10521 10525
10310 10312 10312 10312 10312 10313 10315 10318 10320 10322 10324 10326 10327 10328 10329 10330 10332 10335 10336 10338 10339 10339 10340 10340 10340 10339 10338 10338 10337 10336 10335 10335 10334 10333 10334 10335 10337 10340 10343 10346 10347 10349 10350 10351 10353 10354 10355 10357 10359 10361 10365 10370 10374 10378 10381 10383 10387 10393 10399 10405 10409 10410 10410 10415 10421 10426 10434 10443 10449 10456 10462 10467 10470 10474 10477 10480 10486 10490 10494 10498 10502 10506 10508 10510 10515
10296 10297 10299 10302 10305 10308 10311 10313 10315 10317 10317 10318 10319 10320 10321 10323 10325 10327 10328 10329 10329 10329 10329 10330 10330 10330 10328 10326 10325 10324 10324 10324 10324 10324 10323 10325 10327 10329 10331 10333 10335 10336 10338 10339 10339 10341 10341 10342 10345 10347 10351 10356 10361 10365 10368 10370 10373 10379 10385 10389 10393 10396 10399 10404 10409 10415 10424 10432 10438 10445 10451 10454 10458 10462 10465 10469 10473 10477 10482 10485 10490 10495 10497 10499 10504
10284 10287 10292 10297 10299 10301 10303 10305 10308 10310 10310 10311 10312 10313 10314 10315 10317 10319 10319 10320 10319 10320 10320 10321 10321 10320 10317 10315 10313 10313 10314 10314 10314 10314 10315 10316 10317 10318 10320 10322 10323 10325 10328 10328 10327 10328 10329 10330 10332 10335 10339 10343 10347 10351 10355 10358 10361 10366 10370 10374 10378 10382 10386 10391 10397 10404 10412 10419 10426 10433 10438 10441 10444 10448 10452 10457 10460 10463 10469 10474 10478 10483 10486 10489 10494
10278 10282 10288 10291 10292 10293 10296 10299 10300 10302 10303 10305 10305 10306 10307 10308 10309 10310 10311 10311 10311 10311 10312 10312 10311 10309 10308 10305 10304 10303 10304 10305 10305 10306 10306 10307 10307 10308 10310 10312 10313 10315 10318 10318 10317 10317 10318 10319 10321 10324 10327 10330 10334 10338 10342 10345 10348 10351 10355 10359 10364 10369 10373 10379 10385 10391 10398 10406 10413 10419 10423 10426 10430 10434 10438 10443 10448 10452 10458 10464 10468 10473 10476 10481 10486
10273 10277 10280 10283 10285 10287 10289 10290 10292 10294 10296 10297 10298 10299 10300 10301 10301 10302 10302 10303 10303 10303 10303 10303 10302 10300 10299 10298 10296 10295 10295 10296 10296 10297 10298 10298 10299 10300 10302 10303 10304 10306 10307 10308 10308 10309 10309 10309 10310 10313 10316 10319 10322 10326 10330 10332 10334 10338 10342 10346 10351 10355 10360 10365 10370 10377 10384 10391 10398 10404 10407 10411 10416 10420 10424 10430 10438 10444 10449 10453 10457 10462 10467 10471 10475
10266 10269 10272 10275 10277 10279 10281 10283 10285 10287 10288 10289 10290 10292 10292 10293 10293 10294 10295 10295 10295 10295 10295 10294 10293 10293 10292 10290 10289 10287 10286 10286 10288 10289 10290 10291 10291 10293 10295 10296 10295 10296 10298 10299 10300 10300 10300 10300 10301 10303 10306 10309 10312 10315 10318 10319 10323 10327 10330 10333 10337 10342 10346 10351 10356 10362 10369 10375 10382 10388 10392 10395 10401 10407 10411 10419 10429 10435 10438 10441 10445 10450 10456 10460 10462
10259 10262 10265 10267 10269 10272 10274 10277 10278 10279 10280 10281 10283 10284 10285 10286 10286 10287 10288 10288 10288 10287 10287 10286 10286 10285 10284 10283 10282 10280 10278 10279 10281 10282 10282 10284 10286 10287 10288 10288 10287 10288 10290 10291 10291 10291 10291 10291 10292 10295 10298 10300 10303 10305 10306 10308 10312 10315 10318 10321 10325 10329 10333 10338 10343 10349 10355 10361 10367 10373 10377 10380 10387 10394 10400 10408 10417 10423 10426 10429 10433 10438 10444 10448 10451
10253 10256 10258 10261 10263 10266 10268 10270 10272 10273 10274 10274 10276 10277 10278 10279 10279 10280 10281 10281 10280 10280 10279 10279 10279 10278 10277 10276 10274 10273 10273 10273 10274 10275 10276 10279 10281 10281 10280 10280 10280 10281 10282 10283 10283 10283 10283 10283 10285 10287 10289 10291 10293 10294 10296 10298 10302 10305 10307 10311 10315 10318 10322 10326 10331 10336 10340 10345 10352 10359 10364 10369 10376 10382 10388 10397 10406 10411 10415 10419 10422 10427 10432 10435 10440
10248 10251 10253 10255 10258 10260 10262 10264 10266 10267 10267 10267 10269 10271 10272 10272 10273 10274 10274 10274 10273 10273 10272 10273 10272 10271 10269 10269 10269 10268 10267 10267 10268 10270 10271 10273 10274 10274 10272 10273 10273 10274 10275 10276 10276 10275 10275 10276 10277 10279 10281 10283 10284 10286 10288 10290 10292 10295 10298 10301 10304 10307 10310 10315 10319 10323 10326 10331 10338 10345 10352 10358 10365 10371 10378 10387 10395 10400 10404 10408 10412 10415 10420 10424 10430
10243 10245 10247 10250 10252 10254 10256 10258 10259 10260 10259 10261 10263 10264 10265 10266 10267 10268 10268 10267 10267 10266 10266 10266 10265 10264 10263 10263 10263 10264 10262 10260 10261 10264 10267 10267 10267 10267 10266 10266 10267 10268 10268 10269 10269 10269 10269 10270 10271 10273 10274 10275 10277 10279 10281 10283 10284 10285 10288 10291 10294 10297 10300 10303 10307 10310 10313 10318 10325 10332 10340 10347 10353 10359 10367 10376 10383 10388 10392 10397 10401 10404 10408 10413 10420
10238 10240 10242 10244 10246 10248 10250 10252 10252 10253 10253 10255 10257 10258 10258 10259 10260 10261 10261 10260 10260 10260 10260 10259 10258 10258 10258 10257 10257 10258 10258 10256 10256 10258 10262 10262 10261 10261 10260 10260 10261 10262 10263 10263 10263 10263 10263 10263 10265 10266 10268 10269 10271 10273 10274 10275 10276 10277 10279 10282 10285 10288 10290 10293 10296 10300 10304 10308 10314 10321 10328 10334 10340 10347 10355 10362 10369 10375 10380 10385 10389 10393 10397 10403 10409
10232 10234 10236 10238 10240 10242 10244 10245 10245 10246 10247 10248 10250 10252 10253 10253 10254 10254 10254 10254 10254 10254 10254 10253 10253 10253 10253 10253 10252 10251 10252 10253 10252 10253 10255 10256 10255 10256 10255 10255 10256 10257 10257 10257 10258 10258 10257 10258 10259 10261 10262 10263 10265 10266 10267 10268 10269 10270 10272 10274 10277 10279 10282 10285 10288 10292 10295 10299 10304 10310 10316 10322 10329 10336 10343 10350 10357 10364 10369 10374 10378 10382 10387 10393 10399
10227 10229 10231 10233 10235 10237 10238 10238 10239 10240 10241 10242 10245 10247 10247 10247 10247 10247 10248 10248 10249 10249 10248 10248 10248 10248 10248 10249 10248 10247 10247 10248 10249 10250 10250 10250 10250 10250 10251 10251 10252 10252 10252 10252 10252 10253 10253 10253 10254 10256 10257 10258 10259 10260 10261 10262 10263 10264 10265 10267 10270 10273 10276 10278 10281 10284 10287 10291 10296 10302 10307 10313 10320 10326 10333 10340 10347 10352 10357 10362 10367 10372 10377 10383 10388
10223 10225 10227 10229 10231 10232 10232 10233 10234 10234 10235 10238 10241 10241 10240 10240 10241 10242 10242 10243 10243 10244 10244 10244 10244 10243 10243 10244 10243 10242 10242 10243 10245 10246 10245 10245 10245 10245 10246 10247 10247 10247 10247 10247 10247 10248 10249 10249 10250 10251 10252 10253 10254 10255 10256 10257 10258 10259 10260 10262 10265 10267 10269 10271 10274 10277 10280 10284 10289 10293 10299 10304 10310 10316 10323 10330 10335 10340 10346 10352 10356 10361 10367 10372 10378
10219 10221 10223 10225 10226 10227 10227 10228 10229 10230 10231 10234 10235 10235 10234 10234 10236 10237 10237 10237 10238 10239 10239 10240 10239 10239 10239 10239 10239 10238 10238 10239 10241 10241 10241 10240 10241 10242 10242 10242 10243 10242 10243 10243 10243 10244 10244 10245 10246 10247 10248 10248 10249 10250 10251 10252 10253 10255 10256 10258 10260 10262 10264 10266 10268 10271 10274 10278 10281 10286 10290 10295 10300 10306 10312 10318 10323 10330 10336 10341 10345 10351 10357 10362 10368
10215 10217 10219 10221 10221 10222 10222 10223 10224 10226 10227 10229 10229 10229 10229 10230 10231 10231 10232 10233 10234 10234 10235 10235 10235 10234 10234 10235 10235 10235 10235 10235 10236 10237 10236 10236 10237 10238 10238 10238 10238 10238 10238 10238 10239 10240 10240 10241 10242 10243 10243 10244 10245 10247 10248 10249 10250 10252 10253 10255 10256 10258 10260 10261 10263 10266 10269 10272 10276 10280 10284 10288 10293 10298 10303 10308 10313 10320 10326 10330 10335 10341 10348 10353 10358
10211 10213 10215 10216 10217 10217 10218 10219 10220 10222 10223 10224 10224 10223 10225 10226 10226 10226 10227 10229 10230 10230 10230 10231 10231 10230 10230 10231 10231 10231 10231 10232 10233 10233 10233 10233 10233 10234 10234 10234 10234 10234 10234 10234 10235 10236 10236 10236 10237 10238 10239 10241 10242 10244 10245 10246 10247 10249 10250 10252 10253 10255 10256 10258 10260 10262 10265 10268 10271 10275 10278 10282 10287 10291 10295 10300 10306 10312 10317 10322 10327 10333 10339 10344 10349
10207 10209 10210 10211 10212 10213 10214 10216 10217 10218 10218 10218 10218 10219 10220 10221 10221 10222 10223 10224 10225 10226 10226 10226 10226 10227 10227 10227 10227 10228 10228 10229 10230 10229 10229 10229 10230 10230 10230 10230 10230 10230 10230 10231 10231 10232 10232 10233 10234 10235 10236 10238 10239 10240 10242 10243 10245 10246 10247 10249 10250 10252 10253 10255 10257 10259 10261 10264 10267 10270 10274 10278 10281 10286 10290 10295 10300 10304 10309 10314 10320 10325 10331 10336 10340
10203 10204 10206 10207 10208 10209 10211 10212 10212 10213 10213 10213 10213 10214 10215 10217 10218 10218 10219 10221 10222 10222 10222 10222 10222 10223 10223 10223 10223 10224 10225 10226 10227 10226 10226 10226 10227 10227 10227 10226 10226 10226 10227 10227 10227 10228 10229 10229 10231 10232 10233 10235 10236 10238 10240 10241 10243 10244 10245 10246 10247 10249 10250 10252 10254 10256 10258 10260 10263 10266 10270 10273 10277 10282 10286 10290 10294 10298 10303 10308 10313 10318 10323 10327 10331
10199 10200 10202 10203 10204 10205 10206 10207 10207 10207 10208 10208 10208 10209 10211 10212 10214 10214 10215 10217 10218 10218 10218 10219 10219 10219 10220 10220 10220 10221 10222 10223 10223 10223 10223 10223 10223 10223 10223 10222 10222 10222 10223 10223 10224 10224 10225 10227 10228 10229 10231 10232 10234 10236 10237 10239 10241 10241 10242 10243 10244 10246 10247 10249 10251 10253 10255 10257 10260 10263 10267 10270 10273 10277 10281 10284 10288 10293 10298 10302 10306 10311 10316 10320 10324
10194 10196 10198 10199 10200 10201 10202 10202 10202 10203 10203 10203 10204 10205 10207 10209 10210 10210 10211 10213 10214 10214 10215 10215 10215 10216 10216 10217 10218 10218 10219 10220 10220 10220 10220 10220 10220 10219 10219 10218 10218 10219 10219 10220 10220 10221 10222 10224 10225 10227 10229 10230 10232 10233 10235 10236 10238 10239 10240 10241 10242 10243 10245 10246 10248 10250 10252 10255 10258 10260 10263 10266 10270 10273 10277 10280 10284 10289 10293 10297 10301 10306 10310 10313 10318
10190 10192 10193 10194 10195 10196 10197 10198 10198 10198 10198 10199 10199 10200 10202 10205 10206 10206 10207 10209 10210 10211 10211 10212 10212 10213 10214 10214 10215 10215 10216 10216 10216 10217 10217 10217 10216 10216 10215 10215 10215 10215 10216 10216 10217 10218 10219 10221 10223 10225 10227 10228 10229 10231 10232 10234 10236 10237 10239 10240 10240 10241 10243 10245 10246 10248 10250 10253 10255 10258 10260 10264 10268 10271 10274 10278 10282 10285 10289 10293 10297 10301 10305 10309 10313
10186 10187 10188 10189 10190 10191 10192 10193 10194 10194 10194 10194 10195 10196 10198 10201 10202 10203 10204 10205 10206 10207 10208 10209 10210 10210 10211 10212 10212 10212 10213 10213 10213 10213 10214 10213 10213 10212 10212 10211 10211 10212 10212 10213 10214 10215 10216 10218 10220 10223 10225 10226 10227 10229 10230 10232 10234 10236 10237 10239 10239 10240 10242 10243 10245 10247 10249 10251 10253 10256 10259 10263 10266 10269 10272 10275 10279 10283 10287 10290 10294 10297 10301 10305 10308
10182 10183 10183 10184 10185 10187 10188 10189 10190 10190 10190 10190 10190 10192 10194 10197 10198 10199 10200 10201 10202 10203 10204 10206 10207 10208 10209 10209 10210 10210 10210 10210 10210 10210 10210 10210 10209 10209 10209 10208 10208 10208 10209 10209 10210 10211 10213 10215 10218 10220 10222 10224 10225 10227 10229 10230 10232 10234 10236 10237 10238 10239 10241 10242 10244 10246 10248 10250 10253 10255 10258 10261 10264 10267 10270 10274 10277 10281 10284 10288 10291 10294 10297 10301 10305
10177 10178 10178 10179 10180 10181 10183 10184 10185 10186 10186 10186 10186 10188 10190 10193 10195 10196 10196 10197 10199 10200 10201 10203 10204 10205 10206 10207 10207 10207 10207 10207 10207 10207 10207 10206 10206 10206 10206 10205 10205 10205 10205 10206 10207 10208 10210 10212 10215 10217 10219 10221 10223 10225 10227 10229 10230 10232 10234 10236 10237 10239 10240 10241 10243 10245 10247 10249 10251 10254 10257 10259 10263 10266 10269 10273 10276 10279 10282 10285 10288 10291 10294 10298 10302
10171 10172 10173 10174 10175 10176 10178 10180 10181 10181 10182 10182 10183 10184 10186 10189 10191 10192 10193 10194 10195 10197 10198 10200 10201 10203 10204 10204 10205 10204 10204 10204 10204 10204 10203 10203 10203 10203 10203 10202 10202 10202 10202 10203 10205 10206 10208 10210 10212 10214 10217 10219 10221 10222 10224 10226 10228 10230 10232 10234 10236 10237 10239 10240 10241 10243 10245 10248 10250 10253 10256 10259 10262 10265 10268 10271 10273 10276 10279 10282 10285 10289 10292 10296 10300
10165 10167 10168 10169 10170 10171 10173 10175 10176 10177 10178 10178 10179 10180 10182 10184 10187 10189 10190 10191 10192 10193 10195 10197 10198 10200 10201 10202 10202 10202 10201 10202 10202 10201 10201 10201 10200 10200 10200 10199 10199 10200 10200 10201 10202 10204 10206 10208 10210 10212 10215 10217 10218 10220 10222 10224 10226 10228 10229 10231 10233 10235 10237 10239 10240 10242 10244 10247 10249 10252 10255 10258 10261 10263 10266 10268 10271 10274 10277 10280 10283 10287 10290 10294 10297
10160 10162 10163 10164 10165 10167 10168 10170 10171 10172 10173 10174 10175 10176 10178 10180 10183 10185 10186 10187 10189 10190 10192 10194 10195 10197 10199 10199 10199 10199 10199 10199 10199 10199 10199 10198 10197 10197 10197 10197 10197 10197 10198 10199 10200 10202 10203 10205 10207 10209 10212 10214 10216 10218 10220 10222 10224 10226 10227 10229 10231 10233 10235 10237 10239 10241 10243 10246 10248 10251 10254 10256 10259 10261 10264 10267 10270 10273 10276 10279 10282 10285 10288 10292 10295
10155 10156 10158 10159 10160 10162 10163 10164 10166 10167 10168 10170 10171 10172 10174 10176 10178 10180 10182 10184 10185 10187 10189 10190 10193 10195 10196 10197 10197 10197 10197 10197 10197 10197 10196 10196 10195 10195 10195 10195 10195 10196 10196 10197 10199 10200 10201 10203 10204 10206 10208 10210 10213 10215 10217 10219 10221 10223 10225 10227 10228 10231 10233 10235 10237 10240 10242 10245 10248 10250 10253 10255 10257 10260 10263 10266 10269 10272 10275 10278 10280 10283 10286 10289 10292
10149 10151 10152 10154 10155 10156 10158 10159 10161 10162 10164 10165 10167 10168 10170 10172 10174 10176 10178 10180 10182 10183 10185 10187 10189 10192 10193 10194 10194 10194 10195 10195 10195 10195 10194 10194 10194 10194 10194 10193 10194 10194 10195 10196 10197 10198 10200 10201 10202 10204 10206 10208 10210 10212 10214 10217 10219 10221 10223 10224 10227 10229 10231 10234 10236 10239 10242 10245 10247 10249 10252 10254 10256 10259 10262 10265 10268 10271 10273 10276 10279 10282 10285 10287 10290
10144 10145 10147 10148 10150 10151 10153 10154 10156 10158 10159 10160 10162 10164 10166 10168 10170 10172 10174 10176 10178 10180 10182 10184 10186 10188 10190 10191 10192 10192 10193 10193 10193 10193 10193 10193 10193 10193 10193 10193 10193 10194 10194 10195 10197 10198 10199 10200 10201 10203 10205 10206 10208 10210 10212 10215 10217 10219 10221 10223 10225 10228 10230 10233 10236 10238 10241 10244 10246 10249 10251 10254 10256 10259 10261 10264 10267 10269 10272 10275 10278 10280 10283 10286 10288